Flag for Germany Weather past 2 weeks in Berlin, Berlin, Germany

Now
45 °F

Cool.


Feels Like: 43 °F
Forecast: 36 / 52 °F
Wind: 5 mph from West

Location: Berlin-Tempelhof

Current Time: Mar 6, 2015 at 5:17:32 PM

Latest Report: Mar 6, 2015 at 4:00 PM


Visibility: N/A

Pressure: 30.51 "Hg

Humidity: 69%

Dew point: 36 °F

Location of BerlinLocation

Historic Weather in Berlin — Graph

°F

Berlin temperature yesterday

Maximum temperature yesterday: 43 °F (at 3:00 PM)
Minimum temperature yesterday: 36 °F (at 9:00 AM)
Average temperature yesterday: 39 °F

Past Weeks' High & Low Weather Summary

 TemperatureHumidityPressure
High51 °F (Feb 27, 4:00 PM)96% (Feb 26, 2:00 AM)30.56 "Hg (Feb 26, 2:00 AM)
Low27 °F (Feb 20, 6:00 AM)42% (Feb 27, 4:00 PM)29.38 "Hg (Feb 21, 12:00 PM)
Average39 °F76%29.92 "Hg
* Reported Feb 19 5:00 PM — Mar 6 4:00 PM, Berlin, Weather by CustomWeather, © 2015

Note: Actual official high and low records may vary slightly from our data, if they occured in-between our weather recording intervals... More about our weather records

Advertising

Berlin weather history for previous 24 hours

 ConditionsComfort  
Time TempWeatherWind HumidityBarometerVisibility
4:00 PM
Fri, Mar 6
45 °FCool.5 mph69%30.51 "HgN/A
3:00 PM46 °FCool.6 mph68%30.50 "HgN/A
2:00 PM46 °FCool.6 mph70%30.51 "HgN/A
1:00 PM44 °FQuite cool.6 mph74%30.53 "HgN/A
12:00 PM43 °FQuite cool.5 mph78%30.54 "HgN/A
11:00 AM42 °FQuite cool.3 mph80%30.54 "HgN/A
10:00 AM40 °FQuite cool.3 mph86%30.55 "HgN/A
9:00 AM39 °FChilly.2 mph90%30.55 "HgN/A
8:00 AM37 °FChilly.3 mph91%30.54 "HgN/A
7:00 AM36 °FChilly.2 mph92%30.55 "HgN/A
6:00 AM36 °FChilly.2 mph92%30.55 "HgN/A
5:00 AM35 °FChilly.2 mph92%30.55 "HgN/A
4:00 AM34 °FChilly.1 mph95%30.55 "HgN/A
3:00 AM33 °FChilly.1 mph93%30.55 "HgN/A
2:00 AM36 °FChilly.1 mph91%30.56 "HgN/A
1:00 AM36 °FChilly.2 mph90%30.56 "HgN/A
12:00 AM36 °FChilly.1 mph89%30.56 "HgN/A
10:00 PM
Thu, Mar 5
38 °FChilly.3 mph86%30.55 "HgN/A
9:00 PM39 °FChilly.2 mph84%30.54 "HgN/A
8:00 PM40 °FChilly.3 mph85%30.54 "HgN/A
7:00 PM39 °FChilly.5 mph89%30.53 "HgN/A
6:00 PM42 °FQuite cool.6 mph73%30.51 "HgN/A
5:00 PM42 °FQuite cool.6 mph67%30.50 "HgN/A
Weather by CustomWeather, © 2015

See weather overviewHow to use our weather pages